Temperature
23 23 23 23 23 23 23 24 25 24 25 25 24 24 23 22 21 19 19 19 19 18 18 18 18 18 18 18 18 18 17 18 18 18 18 18 18 18 18 18 18 18 18 18 18 18 18 18 18
23 23 23 23 23 23 23 24 24 24 24 24 24 24 23 21 20 19 19 19 19 18 18 18 18 18 18 18 17 17 17 17 18 18 18 18 18 18 18 18 18 18 17 18 18 18 18 18 18
23 23 24 23 23 23 23 24 24 25 24 24 23 22 21 20 20 19 19 19 19 18 18 18 18 18 18 18 17 17 17 17 17 18 18 18 18 17 17 17 17 17 17 17 17 17 18 18 18
23 24 25 23 23 24 24 24 25 25 24 24 23 22 20 20 19 19 19 19 19 18 18 18 18 18 18 18 17 17 17 17 17 17 17 17 17 17 17 17 17 17 17 17 17 17 17 17 17
24 24 23 23 24 25 25 25 25 25 24 24 23 21 20 19 19 19 19 19 19 18 18 18 18 18 18 18 17 17 17 18 17 17 17 17 17 17 17 17 17 17 17 17 17 17 17 17 17
24 25 23 23 24 25 25 25 25 24 24 23 22 21 19 19 19 19 19 19 19 19 18 18 18 18 18 18 17 17 17 17 17 17 17 17 17 17 17 17 17 17 17 17 17 17 17 17 17
25 24 23 23 23 24 25 25 25 24 24 23 23 21 20 19 19 19 19 19 19 19 18 18 18 18 18 18 17 17 17 17 17 17 17 17 17 17 17 17 17 17 17 17 17 17 17 17 17
25 24 24 24 23 24 25 24 24 24 23 23 22 21 19 19 19 19 19 19 19 19 19 18 18 18 18 18 17 17 17 17 17 17 17 17 17 17 17 17 17 17 17 17 17 17 17 17 17
25 24 23 24 23 24 25 24 24 23 23 22 22 21 20 19 19 19 19 19 19 19 19 19 18 18 18 17 17 17 17 17 17 17 17 17 17 17 17 17 17 17 17 17 17 17 17 16 16
25 23 24 25 25 24 24 24 24 23 23 22 21 20 20 19 20 20 19 19 19 19 19 19 18 18 18 17 17 17 17 17 17 17 17 17 17 17 17 17 16 16 16 16 16 16 16 16 16
25 24 24 25 25 24 24 24 24 23 22 22 21 20 20 20 20 20 20 19 19 19 19 19 19 18 18 17 17 17 17 17 17 17 17 17 17 17 17 17 16 16 16 16 16 16 16 16 16
25 25 25 24 24 24 24 24 23 23 22 22 21 21 20 20 20 20 19 19 19 19 19 18 18 18 18 17 17 17 17 17 17 17 17 17 17 17 17 17 16 16 16 16 16 16 16 16 16
25 24 24 24 24 24 24 23 23 22 22 22 21 21 20 20 20 20 20 19 19 19 18 18 18 18 18 17 17 17 17 17 17 17 17 17 17 17 17 16 16 16 16 16 16 16 16 16 16
25 25 24 24 24 24 24 23 23 23 22 22 21 21 21 20 20 20 20 19 19 19 18 18 18 18 18 17 17 17 17 17 17 17 17 17 16 16 16 16 16 16 16 16 16 16 16 16 16
24 24 24 24 24 24 24 22 23 23 22 22 21 21 21 20 20 20 19 19 19 18 18 18 18 18 17 17 17 17 17 16 16 17 17 17 16 16 16 16 16 16 16 16 16 16 16 16 16
25 24 23 24 25 24 23 21 23 22 22 22 21 21 20 20 20 19 19 19 19 18 18 18 18 17 17 17 17 16 16 16 16 16 16 16 16 16 16 16 16 16 16 16 16 16 15 15 15
24 23 23 23 25 24 23 22 23 23 22 22 22 21 20 20 20 19 19 19 19 18 18 18 17 17 17 17 16 16 16 16 16 16 16 16 16 16 16 16 16 16 16 16 15 15 15 15 15
23 24 24 23 24 24 23 22 22 23 23 22 21 21 20 20 19 19 19 18 18 18 18 18 17 17 17 17 16 16 16 16 16 16 16 16 16 16 15 15 15 15 15 15 15 15 15 15 15
24 24 23 24 24 23 23 22 23 22 22 22 22 21 20 20 19 19 18 18 18 18 18 17 17 17 17 16 16 16 16 16 15 15 15 15 15 15 15 15 15 15 15 15 15 15 15 15 15
24 23 23 23 24 23 23 23 23 22 22 21 21 21 20 20 19 18 18 18 17 17 17 17 17 16 16 16 16 16 15 15 15 15 15 15 15 15 15 15 15 15 15 15 15 15 15 15 15
24 23 23 23 23 23 23 22 22 22 22 21 21 21 20 19 19 18 18 17 17 17 17 17 16 16 16 16 16 15 15 15 15 15 15 15 15 15 15 15 15 14 14 14 15 15 15 14 14
23 23 23 23 22 22 22 21 22 22 21 21 21 21 20 19 19 18 17 17 17 16 16 16 16 16 16 16 15 15 15 15 14 14 14 14 14 14 14 14 14 14 14 14 14 14 14 14 14
23 23 23 23 22 22 22 21 21 22 21 21 21 20 20 19 18 17 17 16 16 16 16 16 16 16 16 15 15 15 15 14 14 14 14 14 14 14 14 14 14 14 14 14 14 14 14 14 14
23 23 23 23 22 21 22 22 20 21 21 21 21 20 20 19 18 17 16 16 15 15 15 15 15 15 15 15 15 14 14 14 14 14 13 13 13 13 13 13 13 13 13 13 13 13 13 13 13
23 22 21 21 20 21 23 22 20 21 22 21 21 20 19 18 18 17 16 15 15 15 15 15 15 15 15 14 14 14 14 14 13 13 13 13 13 13 13 13 13 13 13 13 13 13 13 13 13
22 22 20 19 20 21 22 22 21 21 21 21 20 20 19 18 17 16 16 15 15 14 14 14 14 14 14 14 14 14 13 13 13 13 13 13 13 13 13 13 13 13 13 13 13 13 12 12 12
22 22 22 21 21 21 21 21 20 21 20 20 20 19 18 17 17 16 15 15 14 14 14 14 14 14 14 14 13 13 13 13 13 13 13 13 12 12 12 12 12 12 12 12 12 12 12 12 12
22 22 22 21 20 19 20 21 20 19 19 19 19 18 18 17 16 15 15 14 14 14 13 13 13 13 13 13 13 13 13 13 13 13 13 12 12 12 12 12 12 12 12 12 12 12 12 11 11
21 21 21 21 21 20 19 20 21 19 19 19 19 18 17 16 15 15 14 14 14 13 13 13 13 13 13 13 13 13 12 12 12 12 12 12 12 12 12 11 11 11 11 11 11 11 11 11 11
22 21 21 19 19 20 19 19 21 20 19 19 18 17 16 16 15 14 14 14 13 13 12 12 12 12 12 12 12 12 12 12 12 12 12 12 11 11 11 11 11 11 11 11 10 10 10 10 10
Wind_Speed
11 11 7 3 1 2 7 7 9 9 9 10 11 11 13 13 9 7 2 2 7 10 12 13 13 13 13 13 13 13 13 13 13 12 12 12 12 12 12 12 11 11 11 11 12 12 11 11 11
10 8 4 2 1 4 7 8 10 10 8 8 11 13 14 13 11 7 3 3 8 11 13 12 11 12 12 13 13 13 13 13 13 13 13 13 13 13 13 13 13 12 12 12 12 12 11 11 10
10 8 3 1 4 6 7 8 9 9 7 8 9 11 9 7 9 5 2 4 8 12 14 12 12 12 12 13 13 13 14 14 14 14 13 13 13 14 14 14 14 13 13 13 12 12 12 11 11
5 3 1 3 9 10 9 8 8 8 7 8 9 9 9 9 6 5 3 6 9 11 14 12 11 12 13 13 12 13 14 14 14 14 14 13 14 14 14 14 14 14 14 13 13 12 12 11 10
3 1 2 5 9 9 8 8 8 9 9 11 12 11 10 10 9 7 6 8 9 10 12 12 12 12 12 13 12 12 13 13 13 13 13 13 13 14 13 14 14 14 14 13 12 12 12 11 10
2 1 2 5 9 8 7 8 10 11 10 9 11 11 8 7 7 5 6 8 8 8 11 12 11 12 12 12 12 12 12 12 12 12 12 12 13 13 13 13 14 14 13 13 12 12 12 11 10
1 1 3 7 8 7 8 8 9 9 9 8 8 9 6 7 5 5 6 6 6 7 8 9 10 11 12 12 11 11 10 10 9 10 10 10 11 11 12 12 13 12 12 12 11 11 11 10 9
1 1 3 5 7 7 7 8 7 8 8 7 7 7 6 5 4 5 6 6 6 6 6 6 8 9 10 10 10 9 8 7 7 7 7 8 8 9 10 11 11 11 10 10 10 9 9 8 6
1 2 3 4 6 6 7 7 7 7 8 9 10 10 9 8 6 6 6 6 6 5 5 6 6 7 8 9 8 8 7 5 4 4 4 4 5 7 8 10 9 8 8 7 7 7 6 5 4
1 3 4 5 7 7 6 6 6 6 8 9 10 11 9 8 6 6 5 5 4 4 5 4 5 6 6 6 6 5 5 4 3 5 5 4 5 6 8 7 7 6 6 5 4 3 2 2 2
4 4 6 7 8 7 6 5 5 6 6 7 8 9 7 7 5 5 5 5 5 5 5 5 5 5 5 4 4 3 4 3 3 5 7 6 5 5 5 3 4 4 3 2 2 2 2 2 3
5 6 6 5 5 5 5 5 5 6 5 6 8 9 7 6 5 5 5 5 5 5 5 4 4 5 6 5 3 3 3 3 3 4 5 4 2 2 3 3 3 3 2 2 1 1 3 4 4
6 6 6 6 4 5 6 5 5 5 5 6 8 8 6 5 4 4 5 5 5 6 5 5 5 5 5 4 3 4 3 3 4 4 4 5 3 3 3 3 3 3 2 2 1 3 4 4 5
5 6 6 5 4 4 5 3 2 4 5 6 7 6 6 5 4 4 4 4 5 5 5 4 3 4 5 4 3 3 3 4 5 4 6 7 5 4 3 3 3 3 3 3 3 3 3 3 4
5 5 5 5 5 5 4 2 3 5 6 6 6 5 5 5 4 4 4 3 4 5 5 4 3 4 5 5 4 4 4 5 4 4 6 6 6 5 4 3 3 3 4 4 4 4 4 3 4
6 4 3 3 5 3 2 2 4 5 5 5 5 6 5 4 3 3 4 3 4 4 5 5 3 4 4 4 3 4 4 5 4 5 6 7 7 7 5 3 3 4 4 3 3 3 3 3 3
6 4 4 4 4 4 4 3 4 4 5 5 4 5 5 4 3 3 4 3 3 4 5 5 4 4 4 3 3 4 4 4 4 5 6 7 7 7 5 3 3 4 4 3 3 3 3 3 2
2 3 3 3 4 4 3 3 4 4 4 4 5 4 4 4 3 4 4 4 4 3 4 5 5 4 4 3 3 3 3 3 4 4 5 7 6 7 5 3 4 5 3 3 3 3 3 2 1
3 4 2 1 1 1 2 3 4 5 4 3 4 4 5 4 4 4 4 4 4 3 4 5 4 3 3 3 2 2 2 2 3 3 5 6 6 6 5 4 4 4 3 3 3 2 3 2 2
3 5 2 1 0 2 3 4 4 6 6 3 3 3 4 4 5 5 4 3 4 3 3 4 4 3 3 2 2 2 2 2 3 3 4 5 6 6 5 3 3 3 2 3 3 3 2 1 1
3 3 3 3 4 5 5 5 5 6 5 4 2 3 4 4 5 4 4 4 4 3 2 2 3 4 3 3 3 3 3 2 3 3 3 4 6 6 5 4 3 2 2 2 2 2 2 1 1
3 3 4 5 5 4 5 4 4 6 6 4 3 2 4 4 5 5 4 4 3 3 2 2 3 3 3 4 3 4 3 2 2 1 2 3 5 5 5 5 4 3 2 2 2 2 1 1 1
3 4 6 8 8 7 8 5 3 5 6 5 5 4 3 5 5 6 5 4 4 3 3 2 2 3 3 3 3 3 2 1 1 1 2 2 3 4 5 5 4 3 3 2 2 2 2 1 1
4 6 8 9 7 7 8 5 2 2 4 4 4 4 4 5 6 5 6 5 4 4 3 2 3 2 2 2 2 2 2 2 1 1 1 1 1 2 3 4 3 3 3 3 2 2 2 2 2
4 5 3 4 5 4 2 3 2 3 4 4 4 4 5 5 5 5 5 5 4 3 2 1 2 1 1 1 1 1 2 2 2 1 1 1 1 1 1 2 2 2 2 3 3 2 2 2 2
5 5 3 4 4 3 3 2 4 6 6 6 5 4 5 5 5 5 5 4 4 3 2 1 1 1 1 1 1 0 1 1 1 1 1 1 1 0 1 1 1 2 2 3 3 2 2 2 2
5 5 5 6 8 5 3 2 4 5 5 5 4 5 4 5 5 4 4 4 3 3 1 0 1 1 1 1 1 1 0 0 0 0 1 1 0 1 1 1 1 2 2 2 2 2 3 2 2
5 6 5 4 4 4 4 3 2 5 5 5 4 4 4 5 4 4 4 3 3 2 1 1 1 1 1 1 1 1 1 0 0 1 1 1 0 1 1 2 2 2 2 2 2 2 2 2 2
5 5 5 5 5 4 4 0 3 5 4 3 3 4 4 5 4 3 2 2 3 3 2 2 1 1 1 1 1 1 1 1 1 1 1 1 1 1 1 1 2 3 2 2 2 2 2 2 2
5 5 6 4 6 6 5 1 5 6 5 4 3 4 5 4 4 3 2 3 3 3 3 2 2 2 1 0 1 1 1 1 1 0 0 0 1 1 1 2 2 2 2 2 2 2 2 1 2
Wind_Direction
283 261 253 254 260 96 75 73 74 64 62 60 59 66 66 54 53 84 107 47 79 87 86 73 61 59 58 58 58 58 61 61 60 60 60 60 59 61 64 65 69 74 80 76 75 73 72 73 69
285 279 271 243 175 94 79 78 74 69 71 71 63 65 69 62 67 85 76 50 81 85 81 73 66 63 62 60 58 59 61 62 61 59 59 61 62 64 64 66 72 76 78 78 76 73 73 72 70
272 274 276 310 58 79 88 83 87 83 73 77 74 57 54 61 64 75 88 78 82 87 86 78 70 68 66 64 62 62 64 64 62 59 59 63 67 67 67 68 72 74 75 74 72 70 70 70 70
281 280 262 71 72 72 91 96 97 90 73 70 83 74 66 57 69 95 98 87 86 91 92 87 80 76 74 71 70 70 68 66 63 61 62 67 69 68 69 70 71 73 73 72 72 70 68 69 69
255 285 87 91 84 76 74 87 90 85 77 71 79 88 80 67 77 82 69 67 77 88 96 95 89 86 82 77 73 73 72 71 69 67 66 67 69 70 71 72 73 74 73 71 72 70 67 68 67
279 233 101 99 93 88 79 79 85 87 89 91 95 93 87 85 73 74 73 71 77 91 101 105 100 94 92 84 77 77 76 74 74 72 71 70 71 70 71 72 74 74 73 72 72 71 68 69 67
282 62 101 103 97 88 74 65 72 79 77 74 85 94 99 90 87 85 78 75 78 90 104 117 120 110 101 93 88 84 83 82 83 81 79 78 77 76 76 76 76 76 74 73 73 74 73 71 66
306 93 108 105 105 93 85 81 72 72 76 77 75 96 111 116 116 99 87 77 72 84 91 98 114 117 114 110 102 99 94 90 90 95 92 91 89 87 84 84 83 82 80 80 79 81 80 75 66
264 96 98 95 100 99 103 101 89 84 87 81 79 92 116 128 125 106 87 71 62 70 83 89 96 102 108 112 112 118 115 106 99 106 113 112 111 102 89 90 93 91 89 90 89 93 90 83 70
118 88 86 80 95 104 100 103 113 108 96 96 94 96 117 128 126 113 102 89 81 68 74 83 86 87 86 86 106 110 94 86 83 79 75 84 80 86 94 104 110 110 106 103 108 115 121 107 90
93 94 83 83 94 106 105 98 94 103 91 100 114 120 134 134 124 112 101 91 81 73 58 65 79 88 87 73 83 83 86 69 43 67 67 59 72 95 105 117 124 127 126 117 112 168 194 103 86
103 96 101 100 97 111 109 96 79 72 85 99 114 128 133 133 119 104 100 102 98 87 69 58 66 78 80 74 65 65 59 56 39 35 71 61 40 57 81 91 104 116 100 69 52 1 63 64 78
107 111 111 108 114 110 101 98 96 98 101 106 114 121 129 126 120 111 105 95 91 90 82 51 49 71 81 77 59 73 53 38 49 22 38 60 41 42 45 69 66 72 77 69 42 38 42 37 51
113 119 123 133 136 123 113 108 127 124 121 118 121 125 130 119 110 106 100 95 91 94 93 72 53 72 85 86 71 60 56 51 42 17 29 51 45 40 40 51 43 46 51 45 59 61 54 46 48
140 146 152 166 166 150 134 137 142 135 137 137 136 127 116 107 99 92 89 95 97 98 100 92 70 64 74 73 67 66 58 52 38 22 23 41 45 48 38 42 39 34 48 51 51 58 56 59 56
187 186 176 178 175 167 194 197 137 149 150 141 141 134 129 120 119 103 91 82 94 103 104 100 76 69 75 72 60 59 59 50 37 30 20 26 34 49 44 38 36 42 45 47 53 64 62 58 61
209 207 185 181 189 183 201 184 152 171 162 159 151 137 137 140 130 111 106 96 91 93 104 106 93 72 72 69 72 58 61 59 42 38 24 16 22 44 45 31 35 45 37 34 45 49 60 61 56
243 232 195 191 188 187 191 182 165 182 190 163 145 139 136 132 127 115 107 89 78 76 88 94 92 77 75 58 63 63 61 54 46 39 27 18 21 39 43 34 34 39 39 40 46 52 50 59 48
275 277 271 275 133 223 223 211 192 172 174 179 151 147 143 141 128 111 107 107 94 81 79 81 91 91 81 59 64 64 54 57 50 40 34 20 17 26 43 43 32 33 36 38 47 51 58 44 47
262 265 276 319 223 268 265 247 204 159 175 172 173 145 140 134 126 123 122 108 104 88 73 93 89 94 92 73 75 88 67 56 59 30 24 17 21 22 36 45 38 33 34 32 42 44 36 16 38
268 286 287 285 282 255 254 246 200 168 160 150 144 137 132 124 123 128 124 112 107 100 88 75 92 98 103 96 68 67 61 51 47 30 19 10 23 25 25 25 40 39 38 35 39 51 44 8 358
282 308 286 264 259 258 247 263 202 168 158 157 157 142 129 127 118 112 99 89 89 94 92 79 76 84 92 107 94 93 83 66 37 39 26 9 22 24 23 24 26 34 32 31 22 42 26 41 334
306 301 275 269 264 267 246 246 221 164 167 166 162 147 130 121 113 112 107 100 86 65 63 67 71 73 78 90 108 104 91 81 55 56 53 33 16 17 20 25 29 21 20 24 39 26 12 25 5
284 272 262 252 252 255 242 237 212 175 167 156 141 135 126 112 110 106 103 97 85 70 51 51 60 65 76 93 117 128 122 119 93 61 72 50 26 3 17 24 31 24 13 11 28 30 18 14 3
258 277 271 232 225 241 206 215 179 113 101 107 112 112 107 103 105 103 99 103 99 86 63 74 76 66 96 119 131 182 161 149 133 97 76 56 54 8 337 13 35 27 20 20 22 20 27 23 16
261 265 281 289 274 286 262 219 125 110 98 98 108 113 106 102 96 99 104 100 103 100 79 62 95 99 116 171 171 141 71 138 139 137 114 100 76 357 342 28 26 31 35 33 27 10 15 34 36
264 260 272 283 286 278 232 151 126 130 115 106 105 103 101 103 100 98 97 87 87 99 90 88 149 128 76 36 73 135 155 171 147 143 127 127 100 32 23 26 49 42 33 49 39 12 10 9 23
267 290 281 270 283 279 258 223 158 147 138 126 121 112 105 97 94 93 93 88 77 81 101 59 79 89 76 66 27 29 35 34 92 81 72 88 84 60 23 10 29 46 38 43 55 17 5 17 16
237 257 272 281 277 278 284 352 95 127 121 111 111 110 102 99 90 69 74 77 77 71 64 58 39 57 54 49 32 48 41 345 249 131 81 55 42 70 64 38 45 47 39 42 41 22 21 37 15
249 258 266 272 281 285 284 280 103 111 100 96 99 101 92 89 93 95 82 80 71 65 55 39 31 37 47 352 10 43 36 335 287 125 110 76 34 38 50 46 44 44 39 48 43 3 358 34 31
Height
1485 1484 1485 1487 1488 1494 1497 1494 1490 1492 1493 1495 1495 1496 1501 1504 1510 1520 1520 1517 1517 1515 1513 1512 1511 1510 1510 1509 1509 1509 1508 1508 1507 1507 1507 1507 1507 1507 1506 1505 1505 1505 1506 1507 1507 1508 1508 1509 1509
1485 1486 1487 1487 1492 1502 1503 1495 1495 1495 1497 1497 1498 1500 1503 1509 1513 1517 1518 1518 1517 1516 1515 1514 1513 1512 1511 1511 1511 1510 1510 1509 1509 1509 1508 1508 1508 1508 1507 1507 1506 1506 1508 1508 1509 1509 1510 1510 1510
1486 1487 1488 1487 1493 1500 1503 1496 1496 1497 1498 1498 1501 1505 1509 1514 1516 1518 1519 1519 1519 1517 1516 1516 1515 1514 1513 1513 1513 1512 1512 1511 1511 1510 1509 1509 1510 1510 1509 1509 1508 1509 1509 1510 1510 1511 1511 1511 1511
1488 1489 1489 1493 1498 1495 1495 1496 1496 1498 1499 1500 1502 1509 1515 1518 1518 1520 1520 1520 1520 1519 1518 1517 1516 1516 1515 1515 1515 1514 1514 1513 1513 1512 1511 1511 1511 1512 1511 1511 1511 1511 1511 1511 1512 1512 1512 1512 1513
1490 1490 1493 1499 1498 1495 1495 1496 1497 1499 1501 1504 1506 1513 1518 1521 1520 1521 1521 1521 1521 1521 1520 1519 1518 1518 1517 1517 1517 1516 1516 1516 1515 1514 1514 1513 1513 1513 1514 1513 1513 1513 1513 1513 1514 1514 1514 1514 1514
1491 1490 1499 1504 1500 1497 1497 1498 1499 1501 1504 1507 1510 1514 1520 1523 1522 1522 1523 1523 1523 1522 1521 1521 1521 1520 1520 1519 1519 1519 1518 1518 1518 1517 1517 1516 1516 1516 1516 1516 1516 1515 1515 1515 1516 1516 1515 1515 1516
1492 1493 1499 1501 1503 1501 1500 1501 1502 1504 1506 1509 1511 1515 1521 1523 1523 1524 1524 1524 1524 1524 1523 1523 1522 1522 1522 1522 1521 1521 1520 1520 1520 1520 1519 1519 1519 1519 1518 1518 1518 1518 1518 1518 1517 1517 1517 1517 1517
1492 1494 1499 1500 1503 1505 1503 1504 1506 1507 1510 1512 1513 1517 1522 1525 1524 1525 1525 1525 1525 1525 1525 1525 1525 1524 1524 1524 1523 1523 1523 1523 1522 1522 1522 1521 1521 1521 1521 1521 1521 1520 1520 1520 1520 1520 1519 1519 1519
1493 1497 1503 1502 1503 1505 1504 1506 1508 1510 1512 1514 1516 1518 1522 1524 1525 1525 1526 1527 1526 1527 1527 1526 1526 1526 1526 1526 1525 1525 1525 1525 1524 1524 1524 1523 1523 1523 1523 1523 1523 1522 1522 1522 1522 1522 1522 1522 1522
1494 1501 1502 1499 1500 1504 1505 1507 1509 1511 1513 1516 1519 1521 1523 1524 1525 1525 1526 1527 1527 1528 1528 1528 1528 1528 1528 1528 1527 1527 1527 1526 1526 1526 1526 1526 1526 1525 1525 1525 1524 1524 1524 1524 1524 1523 1523 1523 1523
1495 1500 1500 1501 1503 1505 1507 1509 1510 1512 1514 1517 1519 1521 1524 1525 1525 1526 1527 1527 1528 1529 1529 1529 1529 1529 1529 1529 1529 1529 1528 1528 1528 1528 1528 1528 1527 1527 1526 1526 1526 1525 1525 1525 1525 1525 1525 1525 1525
1498 1500 1502 1504 1506 1507 1508 1510 1512 1514 1517 1518 1519 1521 1524 1525 1526 1526 1527 1528 1529 1530 1530 1530 1530 1530 1530 1530 1530 1530 1530 1529 1529 1529 1529 1529 1529 1528 1528 1528 1527 1527 1527 1527 1526 1526 1527 1527 1527
1500 1503 1505 1506 1507 1508 1510 1512 1514 1516 1518 1519 1520 1522 1523 1525 1526 1527 1528 1529 1529 1530 1530 1530 1530 1531 1531 1531 1531 1531 1531 1531 1531 1530 1530 1530 1530 1529 1529 1529 1529 1528 1528 1528 1528 1528 1528 1528 1528
1502 1503 1505 1507 1508 1509 1511 1513 1514 1516 1518 1519 1521 1522 1524 1525 1526 1527 1528 1529 1529 1530 1530 1531 1531 1531 1531 1531 1532 1532 1532 1531 1531 1531 1531 1531 1531 1530 1530 1530 1529 1529 1529 1529 1528 1528 1528 1528 1529
1503 1504 1506 1507 1507 1509 1511 1514 1514 1516 1517 1519 1521 1522 1524 1525 1526 1527 1528 1529 1529 1530 1530 1531 1531 1532 1532 1532 1532 1532 1532 1532 1532 1532 1532 1532 1531 1531 1530 1530 1530 1530 1529 1529 1529 1529 1529 1529 1529
1502 1505 1511 1507 1506 1508 1513 1520 1514 1515 1516 1518 1520 1521 1523 1525 1526 1527 1528 1528 1529 1529 1530 1531 1531 1532 1532 1532 1532 1533 1532 1532 1532 1532 1532 1532 1532 1531 1531 1531 1530 1530 1530 1529 1529 1529 1529 1529 1530
1503 1509 1511 1508 1504 1506 1510 1515 1513 1514 1515 1517 1518 1520 1522 1524 1525 1526 1527 1528 1528 1529 1530 1530 1531 1532 1532 1532 1533 1533 1533 1533 1533 1532 1532 1532 1532 1532 1531 1531 1531 1530 1530 1530 1529 1529 1529 1530 1530
1508 1506 1507 1508 1503 1504 1509 1512 1512 1513 1514 1515 1517 1519 1521 1523 1524 1525 1526 1527 1528 1528 1529 1530 1530 1531 1531 1532 1532 1532 1532 1533 1533 1532 1532 1532 1532 1532 1531 1531 1531 1531 1530 1530 1529 1529 1529 1530 1530
1501 1505 1507 1505 1501 1506 1509 1510 1509 1510 1512 1514 1515 1517 1519 1521 1523 1524 1525 1526 1527 1528 1528 1528 1529 1530 1530 1531 1531 1532 1532 1532 1532 1532 1532 1532 1532 1532 1531 1531 1531 1531 1530 1530 1530 1529 1529 1530 1530
1502 1506 1507 1505 1502 1506 1508 1507 1506 1508 1510 1512 1514 1515 1518 1519 1521 1523 1524 1525 1526 1527 1527 1528 1528 1529 1529 1530 1531 1531 1532 1532 1532 1532 1532 1532 1531 1531 1531 1531 1530 1530 1530 1530 1530 1529 1529 1529 1530
1503 1506 1507 1508 1506 1504 1507 1510 1506 1506 1508 1511 1513 1514 1516 1518 1520 1522 1523 1524 1525 1525 1526 1527 1528 1528 1529 1529 1530 1530 1530 1531 1531 1531 1531 1531 1531 1531 1530 1530 1530 1530 1530 1529 1529 1529 1529 1528 1529
1507 1502 1503 1506 1510 1511 1508 1519 1507 1503 1507 1509 1512 1513 1515 1517 1519 1520 1522 1523 1524 1524 1525 1526 1527 1527 1528 1528 1528 1529 1529 1529 1530 1530 1530 1530 1530 1530 1530 1529 1529 1529 1529 1528 1528 1528 1528 1528 1528
1504 1502 1503 1504 1507 1510 1505 1513 1509 1501 1507 1508 1510 1512 1514 1516 1518 1520 1521 1522 1522 1523 1524 1525 1525 1526 1526 1526 1527 1527 1528 1528 1529 1529 1529 1529 1529 1529 1529 1528 1528 1528 1527 1527 1527 1527 1527 1527 1527
1501 1503 1502 1501 1506 1517 1504 1508 1513 1505 1504 1506 1508 1511 1513 1515 1517 1519 1520 1521 1521 1522 1522 1523 1524 1524 1524 1525 1526 1526 1527 1527 1527 1528 1527 1527 1527 1527 1527 1527 1527 1527 1526 1526 1526 1526 1525 1525 1525
1503 1510 1518 1518 1519 1513 1497 1504 1510 1501 1500 1503 1507 1510 1512 1515 1517 1518 1519 1520 1521 1521 1521 1522 1522 1523 1523 1523 1524 1525 1525 1526 1526 1526 1526 1526 1526 1526 1526 1526 1526 1526 1525 1525 1525 1524 1524 1524 1524
1504 1508 1522 1528 1521 1511 1500 1504 1505 1499 1501 1504 1507 1510 1512 1514 1516 1517 1519 1519 1520 1520 1520 1520 1521 1521 1522 1522 1522 1523 1523 1524 1525 1525 1525 1525 1525 1525 1525 1525 1525 1525 1524 1524 1523 1523 1523 1523 1523
1506 1506 1504 1513 1510 1514 1507 1503 1503 1500 1502 1505 1507 1509 1511 1513 1515 1517 1518 1519 1519 1519 1519 1519 1519 1520 1520 1521 1521 1521 1521 1522 1523 1523 1523 1523 1523 1524 1524 1523 1523 1523 1522 1522 1522 1522 1521 1521 1521
1503 1503 1505 1511 1519 1522 1510 1506 1508 1505 1505 1506 1507 1509 1511 1513 1515 1516 1517 1517 1518 1518 1518 1518 1518 1519 1519 1520 1520 1520 1520 1520 1521 1521 1521 1521 1522 1522 1522 1521 1521 1521 1521 1520 1520 1520 1520 1519 1519
1504 1506 1505 1507 1508 1518 1520 1514 1498 1501 1503 1505 1507 1509 1511 1513 1514 1516 1517 1517 1517 1517 1517 1517 1517 1517 1517 1517 1518 1518 1518 1518 1518 1518 1519 1519 1520 1520 1520 1520 1520 1519 1519 1519 1518 1517 1517 1517 1517
1499 1503 1506 1516 1513 1508 1514 1515 1497 1499 1502 1506 1508 1509 1511 1513 1515 1515 1516 1516 1516 1515 1515 1515 1515 1515 1515 1515 1515 1515 1515 1516 1515 1515 1516 1517 1518 1518 1518 1518 1518 1517 1517 1516 1516 1515 1515 1515 1515